User: anonymous   Login
Location: La Brionne
(46.1728°N, 1.7849°E)
Time: 11:16:55
(UTC+00:00)
Language:

BEESAT 3 - Orbit

View from above orbital plane
View from above orbital plane
View from above satellite
View from above satellite

Ground track
Ground track

The orbit data is extracted from the following two-line orbital elements,

1 39134U 13015E   23086.67375466  .00083558  00000-0  15985-2 0  9992
2 39134  64.8537 203.7718 0019207 257.3236 102.5758 15.47396417550319
Epoch (UTC): 27 March 2023 16:10:12
Eccentricity: 0.0019207
inclination: 64.8537°
perigee height: 411 km
apogee height: 437 km
right ascension of ascending node: 203.7718°
argument of perigee: 257.3236°
revolutions per day: 15.47396417
mean anomaly at epoch: 102.5758°
orbit number at epoch: 55031

The dashed part of the orbit path shows where the satellite is in the earth's shadow,  

DLR